Albertville, AL

5:05 AM CDT on July 27, 2017 (GMT -0500)
Albertville

Weather History for K8A0 - January, 2014

Change the Weather History Date:

Monday, January 27, 2014

  Actual Average (KGAD) Record (KGAD)
Temperature  
Mean Temperature 46 °F -  
Max Temperature 50 °F 51 °F 75 °F (1950)
Min Temperature 42 °F 31 °F -3 °F (1940)
Degree Days  
Heating Degree Days 19    
Moisture  
Dew Point 35 °F    
Average Humidity 67    
Maximum Humidity 76    
Minimum Humidity 54    
Precipitation  
Precipitation 0.00 in - - ()
Sea Level Pressure  
Sea Level Pressure 30.02 in    
Wind  
Wind Speed 10 mph (NW)    
Max Wind Speed 20 mph    
Max Gust Speed 26 mph    
Visibility 10 miles    
Events      
Averages and records for this station are not official NWS values.
T = Trace of Precipitation, MM = Missing Value Source: NWS Daily Summary

Daily Weather History Graph

Daily Weather History Graph

Search for Another Location

Airport or City:

Trip Planner

Search our weather history database for the weather conditions in past years. The results will help you decide how hot, cold, wet, or windy it might be!

Date:

Astronomy

Jan. 27, 2014 Rise Set
Actual Time 6:45 AM CST 5:10 PM CST
Civil Twilight 6:19 AM CST 5:36 PM CST
Nautical Twilight 5:48 AM CST 6:07 PM CST
Astronomical Twilight 5:19 AM CST 6:36 PM CST
Moon 3:24 AM CST 1:57 PM CST
Length of Visible Light 11h 17m
Length of Day
10h 24m
Waning Crescent, 14% of the Moon is Illuminated
Jan 27
Waning Crescent
Jan 30
New
Feb 6
First Quarter
Feb 14
Full
Feb 22
Last Quarter

Hourly Weather History & Observations

Time (CST) Temp. Windchill Dew Point Humidity Pressure Visibility Wind Dir Wind Speed Gust Speed Precip Events Conditions
12:15 AM 50.0 °F - 33.8 °F 54% 29.83 in 10.0 mi SSW 8.1 mph - N/A   Overcast
12:35 AM 50.0 °F - 33.8 °F 54% 29.83 in 10.0 mi South 8.1 mph - N/A   Overcast
12:55 AM 50.0 °F - 33.8 °F 54% 29.83 in 10.0 mi South 6.9 mph - N/A   Overcast
1:15 AM 50.0 °F - 35.6 °F 58% 29.83 in 10.0 mi South 9.2 mph - N/A   Overcast
1:35 AM 50.0 °F - 35.6 °F 58% 29.83 in 10.0 mi South 6.9 mph - N/A   Overcast
1:55 AM 50.0 °F - 35.6 °F 58% 29.85 in 10.0 mi SW 3.5 mph - N/A   Overcast
2:15 AM 46.4 °F 44.3 °F 35.6 °F 66% 29.87 in 10.0 mi WNW 4.6 mph - N/A   Overcast
2:35 AM 46.4 °F 42.4 °F 35.6 °F 66% 29.87 in 10.0 mi West 8.1 mph - N/A   Overcast
2:55 AM 46.4 °F 43.5 °F 35.6 °F 66% 29.88 in 10.0 mi WSW 5.8 mph - N/A   Mostly Cloudy
3:15 AM 44.6 °F 41.4 °F 35.6 °F 71% 29.87 in 10.0 mi SW 5.8 mph - N/A   Scattered Clouds
3:35 AM 46.4 °F 42.9 °F 35.6 °F 66% 29.87 in 10.0 mi SW 6.9 mph - N/A   Scattered Clouds
3:55 AM 46.4 °F 43.5 °F 35.6 °F 66% 29.87 in 10.0 mi SSW 5.8 mph - N/A   Scattered Clouds
4:15 AM 46.4 °F 42.9 °F 35.6 °F 66% 29.87 in 10.0 mi SSW 6.9 mph - N/A   Scattered Clouds
4:35 AM 44.6 °F 42.2 °F 35.6 °F 71% 29.87 in 10.0 mi SSW 4.6 mph - N/A   Clear
4:55 AM 44.6 °F 42.2 °F 35.6 °F 71% 29.87 in 10.0 mi South 4.6 mph - N/A   Clear
5:15 AM 42.8 °F 40.1 °F 35.6 °F 76% 29.87 in 10.0 mi South 4.6 mph - N/A   Clear
5:35 AM 42.8 °F 39.3 °F 35.6 °F 76% 29.87 in 10.0 mi SSW 5.8 mph - N/A   Scattered Clouds
5:55 AM 42.8 °F - 35.6 °F 76% 29.88 in 10.0 mi Calm Calm - N/A   Mostly Cloudy
6:15 AM 44.6 °F 42.2 °F 35.6 °F 71% 29.89 in 10.0 mi SW 4.6 mph - N/A   Overcast
6:35 AM 42.8 °F 39.3 °F 35.6 °F 76% 29.91 in 10.0 mi WSW 5.8 mph - N/A   Mostly Cloudy
6:55 AM 44.6 °F 42.2 °F 35.6 °F 71% 29.92 in 10.0 mi WSW 4.6 mph - N/A   Mostly Cloudy
7:15 AM 44.6 °F 42.2 °F 35.6 °F 71% 29.92 in 10.0 mi WSW 4.6 mph - N/A   Scattered Clouds
7:35 AM 42.8 °F - 35.6 °F 76% 29.92 in 10.0 mi Calm Calm - N/A   Mostly Cloudy
7:55 AM 44.6 °F 42.2 °F 35.6 °F 71% 29.93 in 10.0 mi West 4.6 mph - N/A   Scattered Clouds
8:15 AM 44.6 °F 41.4 °F 37.4 °F 76% 29.94 in 10.0 mi WNW 5.8 mph - N/A   Clear
8:35 AM 46.4 °F 39.5 °F 35.6 °F 66% 29.97 in 10.0 mi NNW 17.3 mph 26.5 mph N/A   Scattered Clouds
8:55 AM 42.8 °F 34.3 °F 33.8 °F 70% 29.99 in 10.0 mi North 19.6 mph 24.2 mph N/A   Scattered Clouds
9:15 AM 42.8 °F 35.1 °F 32.0 °F 66% 30.00 in 10.0 mi North 16.1 mph 23.0 mph N/A   Clear
9:35 AM 42.8 °F 35.4 °F 32.0 °F 66% 30.00 in 10.0 mi NNW 15.0 mph 21.9 mph N/A   Clear
9:55 AM 42.8 °F 35.4 °F 32.0 °F 66% 30.00 in 10.0 mi North 15.0 mph 19.6 mph N/A   Clear
10:15 AM 42.8 °F 35.1 °F 32.0 °F 66% 30.01 in 10.0 mi North 16.1 mph 21.9 mph N/A   Scattered Clouds
10:35 AM - - - N/A% 30.02 in 10.0 mi NNW 12.7 mph - N/A   Scattered Clouds
10:55 AM - - - N/A% 30.02 in 10.0 mi NNW 12.7 mph 18.4 mph N/A   Mostly Cloudy
11:15 AM - - - N/A% 30.03 in 10.0 mi NW 13.8 mph 19.6 mph N/A   Overcast
11:35 AM - - - N/A% 30.03 in 10.0 mi NW 10.4 mph 19.6 mph N/A   Mostly Cloudy
11:55 AM - - - N/A% 30.04 in 10.0 mi NNW 17.3 mph 23.0 mph N/A   Scattered Clouds
12:15 PM - - - N/A% 30.04 in 10.0 mi NNW 17.3 mph 24.2 mph N/A   Scattered Clouds
12:35 PM - - - N/A% 30.04 in 10.0 mi NNW 11.5 mph - N/A   Clear
12:55 PM - - - N/A% 30.03 in 10.0 mi NNW 17.3 mph 23.0 mph N/A   Clear
1:15 PM - - - N/A% 30.03 in 10.0 mi NW 15.0 mph 21.9 mph N/A   Clear
1:35 PM - - - N/A% 30.03 in 10.0 mi North 16.1 mph 21.9 mph N/A   Clear
1:55 PM - - - N/A% 30.03 in 10.0 mi North 13.8 mph 18.4 mph N/A   Clear
2:15 PM - - - N/A% 30.03 in 10.0 mi NW 16.1 mph 19.6 mph N/A   Clear
2:35 PM - - - N/A% 30.04 in 10.0 mi NNW 13.8 mph 21.9 mph N/A   Clear
2:55 PM - - - N/A% 30.04 in 10.0 mi NNW 17.3 mph 21.9 mph N/A   Clear
3:15 PM - - - N/A% 30.04 in 10.0 mi NNW 15.0 mph 18.4 mph N/A   Clear
3:35 PM - - - N/A% 30.05 in 10.0 mi NNW 15.0 mph - N/A   Clear
3:55 PM - - - N/A% 30.06 in 10.0 mi NNW 12.7 mph 20.7 mph N/A   Clear
4:15 PM - - - N/A% 30.07 in 10.0 mi NNW 15.0 mph 24.2 mph N/A   Clear
4:35 PM - - - N/A% 30.08 in 10.0 mi NNW 16.1 mph 21.9 mph N/A   Clear
4:55 PM - - - N/A% 30.09 in 10.0 mi NNW 12.7 mph 20.7 mph N/A   Clear
5:15 PM - - - N/A% 30.11 in 10.0 mi NNW 12.7 mph 19.6 mph N/A   Clear
5:35 PM - - - N/A% 30.12 in 10.0 mi NNW 9.2 mph 13.8 mph N/A   Clear
5:55 PM - - - N/A% 30.12 in 10.0 mi NNW 11.5 mph 20.7 mph N/A   Clear
6:15 PM - - - N/A% 30.13 in 10.0 mi NNW 13.8 mph 19.6 mph N/A   Clear
6:35 PM - - - N/A% 30.14 in 10.0 mi NNW 11.5 mph 21.9 mph N/A   Scattered Clouds
6:55 PM - - - N/A% 30.15 in 10.0 mi North 15.0 mph - N/A   Clear
7:15 PM - - - N/A% 30.16 in 10.0 mi North 13.8 mph 20.7 mph N/A   Clear
7:35 PM - - - N/A% 30.17 in 10.0 mi North 13.8 mph 21.9 mph N/A   Clear
7:55 PM - - - N/A% 30.16 in 10.0 mi North 11.5 mph 20.7 mph N/A   Clear
8:15 PM - - - N/A% 30.17 in 10.0 mi North 16.1 mph 21.9 mph N/A   Clear
8:35 PM - - - N/A% 30.19 in 10.0 mi North 13.8 mph 19.6 mph N/A   Clear
8:55 PM - - - N/A% 30.18 in 10.0 mi North 12.7 mph 24.2 mph N/A   Clear
9:15 PM - - - N/A% 30.19 in 10.0 mi North 16.1 mph - N/A   Clear
9:35 PM - - - N/A% 30.19 in 10.0 mi North 12.7 mph 19.6 mph N/A   Clear
9:55 PM - - - N/A% 30.19 in 10.0 mi North 11.5 mph 21.9 mph N/A   Clear
10:15 PM - - - N/A% 30.19 in 10.0 mi North 12.7 mph 21.9 mph N/A   Clear
10:35 PM - - - N/A% 30.19 in 10.0 mi North 9.2 mph 17.3 mph N/A   Clear
10:55 PM - - - N/A% 30.19 in 10.0 mi North 12.7 mph - N/A   Clear
11:15 PM - - - N/A% 30.20 in 10.0 mi North 13.8 mph 17.3 mph N/A   Clear
11:35 PM - - - N/A% 30.20 in 10.0 mi North 12.7 mph - N/A   Clear
11:55 PM - - - N/A% 30.20 in 10.0 mi North 13.8 mph 18.4 mph N/A   Clear